Regional Weather Roundup
Issued by NWS

Home | Current Version | Previous Version | Graphics & Text | Print | Product List | Glossary On
Versions: 1 2 3 4 5 6 7 8 9 10 11 12 13 14 15 16 17 18 19 20 21 22 23 24 25 26 27 28 29 30 31 32 33 34 35 36 37 38 39 40 41 42 43 44 45 46 47 48 49 50
000
ASUS43 KMKX 220821
RWRWI

WISCONSIN REGIONAL WEATHER ROUNDUP
NATIONAL WEATHER SERVICE MILWAUKEE/SULLIVAN WI
300 AM CDT FRI AUG 22 2014

NOTE: "FAIR" INDICATES FEW OR NO CLOUDS BELOW 12,000 FEET WITH NO
SIGNIFICANT WEATHER AND/OR OBSTRUCTIONS TO VISIBILITY.

WIZ001-002-006>008-014>016-023>028-220900-
NORTHWEST WISCONSIN

CITY           SKY/WX    TMP DP  RH WIND       PRES   REMARKS
SUPERIOR ARPT  CLOUDY    60  60  99 E10G17    29.90F FOG
ASHLAND        CLOUDY    66  64  93 NE6       29.90S
HAYWARD        CLOUDY    68  68 100 E3        29.88F FOG
SIREN          CLOUDY    68  67  97 NE6       29.87R
RICE LAKE      CLOUDY    71  69  94 CALM      29.87S FOG
LADYSMITH      CLOUDY    69  68  96 E9        29.90S FOG
EAU CLAIRE     CLEAR     71  71 100 CALM      29.83F
MENOMONIE      SUNNY     71  70  98 SE3       29.84S FOG
NEW RICHMOND   CLOUDY    70  70 100 W3        29.85S FOG
OSCEOLA        CLOUDY    71  71 100 CALM      29.87S
$$

WIZ003>005-009-010-017-018-220900-
NORTH CENTRAL WISCONSIN

CITY           SKY/WX    TMP DP  RH WIND       PRES   REMARKS
WOODRUFF       CLOUDY    64  62  91 SE6       29.93F FOG
RHINELANDER    CLOUDY    63  62  97 E7        29.94F FOG
EAGLE RIVER    CLOUDY    63  63 100 SE5       29.94F
LAND O LAKES   CLOUDY    63  63  98 CALM      29.95F FOG
PHILLIPS       CLOUDY    65  65  99 E3        29.90F FOG
TOMAHAWK       CLOUDY    64  63  96 CALM      29.93F FOG
MEDFORD        FOG       65  65 100 SE5       29.91F VSB 1/4
MERRILL        FOG       65  65 100 CALM      29.92F VSB 1/2
$$

WIZ029-030-035-036-043>047-220900-
CENTRAL WISCONSIN

CITY           SKY/WX    TMP DP  RH WIND       PRES   REMARKS
WAUSAU         FOG       65  65 100 SE7       29.90F VSB 1/4
MOSINEE        FOG       64  64 100 E3        29.92F VSB 1/4
MARSHFIELD     CLOUDY    71  69  93 E5        29.89F FOG
STEVENS POINT  FOG       65  65  99 E5        29.91S VSB 1/4
WAUPACA        CLOUDY    71  69  95 CALM      29.90F FOG
WAUTOMA        CLOUDY    70  70 100 CALM      29.90S FOG
WISC RAPIDS    CLOUDY    71  70  96 SE3       29.90F FOG
CAMP DOUGLAS   PTCLDY    68  68 100 E3        29.87F FOG
$$

WIZ011>013-019>022-031-037>040-048>050-220900-
NORTHEAST WISCONSIN

CITY           SKY/WX    TMP DP  RH WIND       PRES   REMARKS
ANTIGO         FOG       63  63 100 E5        29.94F VSB 1/2
STURGEON BAY   CLOUDY    66  63  88 CALM      29.92F
GREEN BAY      CLOUDY    66  65  96 NE3       29.91F FOG
MANITOWOC      FOG       66  66 100 E3        29.92F VSB 1/4
APPLETON       CLOUDY    68  66  94 SE6       29.90F FOG
CLINTONVILLE   CLOUDY    64  64 100 CALM      29.90F FOG
OSHKOSH        CLOUDY    71  70  96 SE5       29.89F FOG
$$

WIZ032>034-041-042-053>061-220900-
SOUTHWEST WISCONSIN

CITY           SKY/WX    TMP DP  RH WIND       PRES   REMARKS
LA CROSSE      CLEAR     74  71  91 S6        29.84F
SPARTA         CLEAR     66  65  97 CALM      29.87F FOG
VIROQUA        FAIR      70  70 100 S5        29.88F
BOSCOBEL       FOG       70  68  93 CALM      29.87F VSB 1/4
PRAIRIE DU CHI CLEAR     71  69  92 CALM      29.86S
PLATTEVILLE    FAIR      72  70  95 E6        29.89F
$$

WIZ056-057-062-063-064-067-068-220900-
SOUTH CENTRAL WISCONSIN

CITY           SKY/WX    TMP DP  RH WIND       PRES   REMARKS
BARABOO/DELLS  CLEAR     69  67  94 CALM      29.88F FOG
LONE ROCK      CLOUDY    73  69  87 CALM      29.87F FOG
WATERTOWN      FOG       70  70 100 SE3       29.89S VSB 1/4
MADISON        CLOUDY    73  72  96 S5        29.88F FOG
MIDDLETON      CLOUDY    70  70 100 CALM      29.89F VSB 3/4
MONROE         FOG       72  72 100 E3        29.89F VSB 1/4
JANESVILLE     MOCLDY    72  70  94 CALM      29.88F FOG
$$

WIZ051-052-058>065-066-070>072-220900-
SOUTHEAST WISCONSIN

CITY           SKY/WX    TMP DP  RH WIND       PRES   REMARKS
MILWAUKEE      FOG       70  69  97 S3        29.90F VSB 1/8
WAUKESHA       FOG       68  68 100 CALM      29.91F VSB 1/4
MILWAUKEE/TIMM FOG       68  66  94 SE3       29.90F VSB 1/4
RACINE         FOG       71  70  96 E3        29.91F VSB 1/2
BURLINGTON     FOG       69  69  99 NE3       29.90F VSB 1/2
KENOSHA        FOG       70  70 100 E6        29.90F VSB 1/4
FOND DU LAC    CLOUDY    70  68  93 CALM      29.90F FOG
SHEBOYGAN      FOG       67  66  97 CALM      29.91F VSB 1/4
WEST BEND      FOG       66  64  94 CALM      29.91S VSB<1/4
JUNEAU         HAZE      69  46  42 SE3       29.91S VSB<1/4
$$

LSZ147-162-220900-
LAKE SUPERIOR

STATION/POSITION TIME  TEMP    WIND        PRES    WAVE
                       AIR SEA DIR/SP/G            HT/PER
                 (UTC) (F)     (DEG/KT/KT) (MB)    (FT/S)
W MID LAKE BUOY  0750   58 59   50/ 12/ 14 1013.2R   2/ 4
DEVILS ISLAND    0800   60      50/ 13/ 14 1012.7R
PORT WING        0740   60      40/ 11/ 13 1012.5S
SAXON HARBOR     0700   66        CALM     1012.5
$$

LMZ867-665-643>646-220900-
LAKE MICHIGAN

STATION/POSITION TIME  TEMP    WIND        PRES    WAVE
                       AIR SEA DIR/SP/G            HT/PER
                 (UTC) (F)     (DEG/KT/KT) (MB)    (FT/S)
N MID LAKE BUOY  0750   65 64   70/ 10/ 10 1013.1F   0
NORTHPORT PIER   0700   65      90/  6/  9 1013.9F
SISTER BAY       0741   65     110/  7/  8   N/A
KEWAUNEE LAKESHO 0800   66      90/  1/  2 1012.3F
SHEBOYGAN LAKESH 0800   67 63   90/  2/  2 1012.8F
ATWATER BUOY     0800   70     140/  6/  8 1013.6F
MILWAUKEE LAKESH 0800   69     140/  2/  2   N/A
S MID LAKE BUOY  0750   69 69  100/  6/  6 1012.3F   0
KENOSHA   LAKESH 0800   70     140/  6/  7 1012.2F
$$

TC  - TEMPERATURE IN CELSIUS
VSB - VISIBILITY IN STATUTE MILES
WCI - WIND CHILL INDEX
HX  - HEAT INDEX



USA.gov is the U.S. government's official web portal to all federal, state and local government web resources and services.